STARLINK-11302 [DTC]

Last updated on Mon Oct 21 2024 00:02:04 GMT+0000 (Coordinated Universal Time)

1 61204U 24171E 24293.98744554 -.00003839 00000+0 -19479-4 0 9992 2 61204 53.1571 149.8488 0000565 83.6915 276.4171 15.76724162 4965
UTC large
Height (km)
Speed (km/s)
/
Latitude / Longitude
Inclination (degrees)
Orbital Period (minutes)
Azimuth
Elevation
Range (km)
Doppler Factor

Next 0 passes for location: London (51.5072 / 0.1276)

Sorry there are no passes over London.
STARLINK-11302 [DTC]